National Weather Service Raw Text Product

Displaying AFOS PIL: RWRIA Received: 2018-01-12 03:00 UTC


256 
ASUS43 KDMX 120306
RWRIA 

WEATHER ROUNDUP FOR IOWA
NATIONAL WEATHER SERVICE DES MOINES IA
900 PM CST THU JAN 11 2018

NOTE: "FAIR" INDICATES FEW OR NO CLOUDS BELOW 12,000 FEET WITH NO
SIGNIFICANT WEATHER AND/OR OBSTRUCTIONS TO VISIBILITY.

* - THESE STATIONS ARE NOT NWS STATIONS...THUS NOT UNDER NWS
QUALITY CONTROL.  THEY ALSO DO NOT REPORT WEATHER SUCH 
AS PRECIPITATION OR FOG.  

IAZ001>003-012>014-020>022-031>034-043>046-120400-
   NORTHWEST IOWA
  
CITY           SKY/WX    TMP DP  RH WIND       PRES   REMARKS
CARROLL *      CLOUDY     7   1  78 NW24G32   30.22R WCI -15          
CHEROKEE *     CLOUDY     4  -3  70 N16G24    30.27R WCI -14          
DENISON *      CLEAR      7   0  72 NW18G26   30.26R WCI -12          
LE MARS *      CLEAR      5  -2  72 NW14G22   30.31S WCI -12          
ORANGE CITY *  CLEAR      3  -4  72 N17G25    30.27R WCI -17          
SHELDON *      CLOUDY     1  -6  71 NW21      30.26R WCI -20          
SIOUX CITY     CLEAR      6  -3  66 NW20      30.32R WCI -14          
SPENCER        CLOUDY     2  -8  63 N24G33    30.23R WCI -21          
STORM LAKE *   CLOUDY     5  -4  66 NW23G30   30.20S WCI -17          
$$
 
IAZ055>058-069>071-079>083-090>094-120400-
   SOUTHWEST IOWA
  
CITY           SKY/WX    TMP DP  RH WIND       PRES   REMARKS
ATLANTIC *     CLOUDY     9   3  78 NW21G29   30.24R WCI -11          
AUDUBON *      CLOUDY     9   1  72 NW16G29   30.22R WCI  -9          
CLARINDA *     CLOUDY    10   5  79 N20G30    30.27R WCI  -8          
COUNCIL BLFS * CLOUDY     9   5  85 NW22G28   30.26R WCI -11          
CRESTON *      CLOUDY    10   3  72 NW22G32   30.19R WCI  -9          
HARLAN  *      CLOUDY     7   1  78 NW22G32   30.28R WCI -14          
LAMONI         CLOUDY    13   5  70 NW17G25   30.17R WCI  -4          
RED OAK *      CLOUDY    10   3  72 NW16G26   30.27R WCI  -7          
SHENANDOAH *   CLOUDY    10   3  72 NW15G21   30.29R WCI  -6          
$$
 
IAZ047>049-059>061-072>074-084-120400-
   CENTRAL IOWA
  
CITY           SKY/WX    TMP DP  RH WIND       PRES   REMARKS
AMES           CLOUDY     7   1  76 N23G32    30.19R WCI -14          
ANKENY *       LGT SNOW   9   3  78 NW21G35   30.20R WCI -11          
BOONE *        CLOUDY     7   0  72 N24G35    30.17R WCI -15          
CHARITON *     FLURRIES  12   5  73 N16G24    30.15R WCI  -4          
DES MOINES     LGT SNOW  11   4  73 NW18G30   30.18R WCI  -7          
GRINNELL*      CLOUDY     8   2  77 NW24      30.14R WCI -14          
KNOXVILLE *    CLOUDY    10   1  67 NW21      30.15R WCI  -9          
MARSHALLTOWN   CLOUDY     7   1  76 NW23G33   30.14R WCI -14          
NEWTON *       CLOUDY     9   1  72 N23G32    30.16R WCI -12          
PELLA *        LGT SNOW  10   5  82 NW17G24   30.18R WCI  -8          
PERRY *        MOCLDY     8   3  78 NW18G28   30.21R WCI -10          
$$
 
IAZ004>006-015-016-023>025-035-036-120400-
   NORTH CENTRAL IOWA
  
CITY           SKY/WX    TMP DP  RH WIND       PRES   REMARKS
ALGONA *       LGT SNOW   1 N/A N/A N16G35    30.18R WCI -18          
CLARION *      CLOUDY     3   1  92 N15G30    30.17R WCI -15          
ESTHERVILLE    CLEAR     -1  -7  75 NW30G38   30.21R WCI -27          
FORT DODGE *   CLOUDY     3  -3  76 NW13G22   30.19R WCI -14          
MASON CITY     CLOUDY     1  -5  75 NW29G37   30.13R WCI -24          
FOREST CITY *  MOCLDY     3  -2  78 NW20G28   30.14R HAZE    WCI -18  
WEBSTER CITY * CLOUDY     5  -2  72 NW21G32   30.17R WCI -16          
IOWA FALLS *   CLOUDY     5   0  78 NW24G30   30.15R HAZE    WCI -17  
$$

IAZ007>011-017>019-026>030-037>042-050>054-066-120400-
   NORTHEAST IOWA
  
CITY           SKY/WX    TMP DP  RH WIND       PRES   REMARKS
CEDAR RAPIDS     N/A      9   1  70 NW22      30.06S WCI -11          
CHARLES CITY * CLOUDY     7   5  92 NW16G28   30.10R FOG     WCI -11  
CLINTON *      CLOUDY    12   7  80 NW23      29.99S WCI  -7          
DECORAH *      CLOUDY     7   3  85 NW17G25   30.03R WCI -12          
DUBUQUE          N/A      9   2  73 NW20      29.96S WCI -10          
MONTICELLO *   CLOUDY     9   1  72 NW18      30.02S WCI -10          
OELWEIN *      CLOUDY     9   5  85 NW20G28   30.06R WCI -11          
WATERLOO       CLOUDY     7   3  84 NW14      30.10R FOG     WCI -10  
$$
 
IAZ064-065-067-068-078-120400-
   EAST CENTRAL IOWA
  
CITY           SKY/WX    TMP DP  RH WIND       PRES   REMARKS
DAVENPORT      CLOUDY    12   4  70 NW24G33   30.03S WCI  -8          
IOWA CITY        N/A     10   0  63 NW18G26   30.09S WCI  -8          
MT. PLEASANT * CLOUDY    10   3  72 NW12G24   30.10R WCI  -4          
MUSCATINE *    CLOUDY    10   3  72 NW21G28   30.09S WCI  -9          
QUAD CITIES    CLOUDY    12   4  70 NW20G28   30.03R WCI  -6          
$$
 
IAZ062-063-075>077-085>089-095>099-120400-
   SOUTHEAST IOWA
  
CITY           SKY/WX    TMP DP  RH WIND       PRES   REMARKS
BURLINGTON     CLOUDY    10   2  69 NW20G30   30.08R WCI  -9          
FAIRFIELD *    CLOUDY     9   0  66 NW23      30.10R WCI -12          
FORT MADISON * CLOUDY    10   3  72 NW20G28   30.10R WCI  -8          
KEOKUK *       CLOUDY    12   5  73 NW21G31   30.10R WCI  -6          
OSKALOOSA *    MOCLDY     9   3  78 NW20G29   30.14S WCI -11          
OTTUMWA        CLOUDY    10   2  69 NW29G35   30.13S WCI -12          
WASHINGTON *   CLOUDY     9   1  72 NW23G30   30.11R WCI -12          
$$

ABBREVIATIONS USED IN REMARKS
   TC - TEMPERATURES IN CELSIUS
  WCI - WIND CHILL INDEX
   HX - HEAT INDEX
  VSB - VISIBILITY  
$$

  

837 
ASUS43 KDMX 120301
RWRIA 

WEATHER ROUNDUP FOR IOWA
NATIONAL WEATHER SERVICE DES MOINES IA
900 PM CST THU JAN 11 2018

NOTE: "FAIR" INDICATES FEW OR NO CLOUDS BELOW 12,000 FEET WITH NO
SIGNIFICANT WEATHER AND/OR OBSTRUCTIONS TO VISIBILITY.

* - THESE STATIONS ARE NOT NWS STATIONS...THUS NOT UNDER NWS
QUALITY CONTROL.  THEY ALSO DO NOT REPORT WEATHER SUCH 
AS PRECIPITATION OR FOG.  

IAZ001>003-012>014-020>022-031>034-043>046-120400-
   NORTHWEST IOWA
  
CITY           SKY/WX    TMP DP  RH WIND       PRES   REMARKS
CARROLL *      CLOUDY     7   1  78 NW24G32   30.22R WCI -15          
DENISON *      CLEAR      7   0  72 NW18G26   30.26R WCI -12          
LE MARS *      CLEAR      5  -2  72 NW14G22   30.31S WCI -12          
ORANGE CITY *  CLEAR      3  -4  72 N17G25    30.27R WCI -17          
SHELDON *      CLOUDY     1  -6  71 NW21      30.26R WCI -20          
SIOUX CITY     CLEAR      6  -3  66 NW20      30.32R WCI -14          
SPENCER        CLOUDY     2  -8  63 N24G33    30.23R WCI -21          
STORM LAKE *   CLOUDY     5  -4  66 NW23G30   30.20S WCI -17          
$$
 
IAZ055>058-069>071-079>083-090>094-120400-
   SOUTHWEST IOWA
  
CITY           SKY/WX    TMP DP  RH WIND       PRES   REMARKS
ATLANTIC *     CLOUDY     9   3  78 NW21G29   30.24R WCI -11          
AUDUBON *      CLOUDY     9   1  72 NW16G29   30.22R WCI  -9          
CLARINDA *     CLOUDY    10   5  79 N20G30    30.27R WCI  -8          
COUNCIL BLFS * CLOUDY     9   5  85 NW22G28   30.26R WCI -11          
CRESTON *      CLOUDY    10   3  72 NW22G32   30.19R WCI  -9          
HARLAN  *      CLOUDY     7   1  78 NW22G32   30.28R WCI -14          
LAMONI         CLOUDY    13   5  70 NW17G25   30.17R WCI  -4          
RED OAK *      CLOUDY    10   3  72 NW16G26   30.27R WCI  -7          
SHENANDOAH *   CLOUDY    10   3  72 NW15G21   30.29R WCI  -6          
$$
 
IAZ047>049-059>061-072>074-084-120400-
   CENTRAL IOWA
  
CITY           SKY/WX    TMP DP  RH WIND       PRES   REMARKS
AMES           CLOUDY     7   1  76 N23G32    30.19R WCI -14          
ANKENY *       LGT SNOW   9   3  78 NW21G35   30.20R WCI -11          
BOONE *        CLOUDY     7   0  72 N24G35    30.17R WCI -15          
CHARITON *     FLURRIES  12   5  73 N16G24    30.15R WCI  -4          
DES MOINES     LGT SNOW  11   4  73 NW18G30   30.18R WCI  -7          
GRINNELL*      CLOUDY     8   2  77 NW24      30.14R WCI -14          
KNOXVILLE *    CLOUDY    10   1  67 NW21      30.15R WCI  -9          
MARSHALLTOWN   CLOUDY     7   1  76 NW23G33   30.14R WCI -14          
NEWTON *       CLOUDY     9   1  72 N23G32    30.16R WCI -12          
PELLA *        LGT SNOW  10   5  82 NW17G24   30.18R WCI  -8          
PERRY *        MOCLDY     8   3  78 NW18G28   30.21R WCI -10          
$$
 
IAZ004>006-015-016-023>025-035-036-120400-
   NORTH CENTRAL IOWA
  
CITY           SKY/WX    TMP DP  RH WIND       PRES   REMARKS
ALGONA *       LGT SNOW   1 N/A N/A N16G35    30.18R WCI -18          
CLARION *      CLOUDY     3   1  92 N15G30    30.17R WCI -15          
ESTHERVILLE    CLEAR     -1  -7  75 NW30G38   30.21R WCI -27          
FORT DODGE *   CLOUDY     3  -3  76 NW13G22   30.19R WCI -14          
MASON CITY     CLOUDY     1  -5  75 NW29G37   30.13R WCI -24          
FOREST CITY *  MOCLDY     3  -2  78 NW20G28   30.14R HAZE    WCI -18  
WEBSTER CITY * CLOUDY     5  -2  72 NW21G32   30.17R WCI -16          
IOWA FALLS *   CLOUDY     6   1  80 NW22G30   30.15R FOG     WCI -16  
$$

IAZ007>011-017>019-026>030-037>042-050>054-066-120400-
   NORTHEAST IOWA
  
CITY           SKY/WX    TMP DP  RH WIND       PRES   REMARKS
CEDAR RAPIDS     N/A      9   1  70 NW22      30.06S WCI -11          
CHARLES CITY * CLOUDY     7   5  92 NW16G28   30.10R FOG     WCI -11  
CLINTON *      CLOUDY    12   7  80 NW23      29.99S WCI  -7          
DECORAH *      CLOUDY     7   3  85 NW17G25   30.03R WCI -12          
DUBUQUE          N/A      9   2  73 NW20      29.96S WCI -10          
MONTICELLO *   CLOUDY     9   1  72 NW18      30.02S WCI -10          
OELWEIN *      CLOUDY     9   5  85 NW20G28   30.06R WCI -11          
WATERLOO       CLOUDY     7   3  84 NW14      30.10R FOG     WCI -10  
$$
 
IAZ064-065-067-068-078-120400-
   EAST CENTRAL IOWA
  
CITY           SKY/WX    TMP DP  RH WIND       PRES   REMARKS
DAVENPORT      CLOUDY    12   4  70 NW26G33   30.02F WCI  -8          
IOWA CITY        N/A     10   0  63 NW18G26   30.09S WCI  -8          
MUSCATINE *    CLOUDY    10   3  72 NW21G28   30.09S WCI  -9          
QUAD CITIES    CLOUDY    12   4  70 NW20G28   30.03R WCI  -6          
$$
 
IAZ062-063-075>077-085>089-095>099-120400-
   SOUTHEAST IOWA
  
CITY           SKY/WX    TMP DP  RH WIND       PRES   REMARKS
BURLINGTON     CLOUDY    10   2  69 NW20G30   30.08R WCI  -9          
FAIRFIELD *    CLOUDY     9   0  66 NW23      30.10R WCI -12          
FORT MADISON * CLOUDY    10   3  72 NW20G28   30.10R WCI  -8          
KEOKUK *       CLOUDY    12   5  73 NW21G31   30.10R WCI  -6          
OTTUMWA        CLOUDY    10   2  69 NW29G35   30.13S WCI -12          
WASHINGTON *   CLOUDY     9   1  72 NW23G30   30.11R WCI -12          
$$

ABBREVIATIONS USED IN REMARKS
   TC - TEMPERATURES IN CELSIUS
  WCI - WIND CHILL INDEX
   HX - HEAT INDEX
  VSB - VISIBILITY  
$$